Estación de Longaví Norte
Ultimos registro cada 15 minutos 70
| N° | Estación | Fecha / Hora | Temperatura | Humedad | Lluvia | Velocidad | Dirección | Radiación | Presion |
| 70 | Longaví Norte | 31-08-2026 17:15 | 20,5 | 45 | 0 | 0,7 | 323 | 188,1 | 1005 |
| 69 | Longaví Norte | 31-08-2026 17:00 | 20,2 | 44 | 0 | 1 | 343 | 234,4 | 1004,9 |
| 68 | Longaví Norte | 31-08-2026 16:45 | 20,3 | 45,7 | 0 | 0,7 | 286 | 278,1 | 1004,8 |
| 67 | Longaví Norte | 31-08-2026 16:30 | 20,7 | 44,3 | 0 | 0,7 | 324 | 324,4 | 1004,8 |
| 66 | Longaví Norte | 31-08-2026 16:15 | 21,1 | 45,3 | 0 | 0,7 | 341 | 370,6 | 1005 |
| 65 | Longaví Norte | 31-08-2026 16:00 | 20,2 | 44,2 | 0 | 1 | 300 | 410,6 | 1004,9 |
| 64 | Longaví Norte | 31-08-2026 15:45 | 21,1 | 43,2 | 0 | 1 | 309 | 454,4 | 1005 |
| 63 | Longaví Norte | 31-08-2026 15:30 | 21,2 | 43 | 0 | 1 | 329 | 490,6 | 1005,1 |
| 62 | Longaví Norte | 31-08-2026 15:15 | 20,6 | 44,4 | 0 | 1 | 324 | 525,6 | 1005,2 |
| 61 | Longaví Norte | 31-08-2026 15:00 | 20,2 | 47,8 | 0 | 0,7 | 14 | 585,6 | 1005,3 |
| 60 | Longaví Norte | 31-08-2026 14:45 | 20,8 | 48,9 | 0 | 1 | 0 | 589,4 | 1005,5 |
| 59 | Longaví Norte | 31-08-2026 14:30 | 21 | 50,3 | 0 | 1 | 303 | 614,4 | 1005,7 |
| 58 | Longaví Norte | 31-08-2026 14:15 | 20,8 | 45,6 | 0 | 1 | 329 | 634,4 | 1006 |
| 57 | Longaví Norte | 31-08-2026 14:00 | 20,3 | 47,2 | 0 | 1,3 | 355 | 664,4 | 1006,2 |
| 56 | Longaví Norte | 31-08-2026 13:45 | 19,7 | 48,1 | 0 | 1,3 | 317 | 675,6 | 1006,3 |
| 55 | Longaví Norte | 31-08-2026 13:30 | 20,1 | 52,7 | 0 | 1,3 | 305 | 698,1 | 1006,3 |
| 54 | Longaví Norte | 31-08-2026 13:15 | 18,9 | 52,6 | 0 | 1 | 0 | 754,4 | 1006,5 |
| 53 | Longaví Norte | 31-08-2026 13:00 | 18,7 | 58,5 | 0 | 1,3 | 343 | 525,6 | 1006,7 |
| 52 | Longaví Norte | 31-08-2026 12:45 | 19,5 | 57,6 | 0 | 1 | 351 | 644,4 | 1006,9 |
| 51 | Longaví Norte | 31-08-2026 12:30 | 19,2 | 55,8 | 0 | 1,3 | 351 | 743,1 | 1007 |
| 50 | Longaví Norte | 31-08-2026 12:15 | 18,7 | 57 | 0 | 1,3 | 20 | 698,1 | 1007,1 |
| 49 | Longaví Norte | 31-08-2026 12:00 | 18,5 | 59,4 | 0 | 1,3 | 39 | 723,1 | 1007,2 |
| 48 | Longaví Norte | 31-08-2026 11:45 | 18 | 58 | 0 | 1 | 21 | 516,9 | 1007,2 |
| 47 | Longaví Norte | 31-08-2026 11:30 | 17,1 | 62,5 | 0 | 1 | 25 | 398,1 | 1007,3 |
| 46 | Longaví Norte | 31-08-2026 11:15 | 16,9 | 63,8 | 0 | 1,3 | 34 | 424,4 | 1007,3 |
| 45 | Longaví Norte | 31-08-2026 11:00 | 16,6 | 65,9 | 0 | 1,3 | 29 | 621,9 | 1007,3 |
| 44 | Longaví Norte | 31-08-2026 10:45 | 17,3 | 65,9 | 0 | 1 | 32 | 534,4 | 1007,2 |
| 43 | Longaví Norte | 31-08-2026 10:30 | 16,7 | 69,2 | 0 | 1 | 20 | 470,6 | 1007,2 |
| 42 | Longaví Norte | 31-08-2026 10:15 | 16,3 | 68,4 | 0 | 1 | 38 | 401,9 | 1007,3 |
| 41 | Longaví Norte | 31-08-2026 10:00 | 16,2 | 71,2 | 0 | 1 | 51 | 390,6 | 1007,2 |
| 40 | Longaví Norte | 31-08-2026 09:45 | 15,4 | 74,8 | 0 | 0,7 | 42 | 126,9 | 1007,2 |
| 39 | Longaví Norte | 31-08-2026 09:30 | 14,1 | 81,6 | 0 | 0,3 | 79 | 266,9 | 1007,1 |
| 38 | Longaví Norte | 31-08-2026 09:15 | 12,6 | 88,3 | 0 | 0,7 | 77 | 208,1 | 1007 |
| 37 | Longaví Norte | 31-08-2026 09:00 | 11,7 | 91,7 | 0 | 0 | 73 | 153,1 | 1006,8 |
| 36 | Longaví Norte | 31-08-2026 08:45 | 10,9 | 93,9 | 0 | 0 | 74 | 118,1 | 1006,7 |
| 35 | Longaví Norte | 31-08-2026 08:30 | 10,2 | 96 | 0 | 0 | 74 | 74,4 | 1006,5 |
| 34 | Longaví Norte | 31-08-2026 08:15 | 9,7 | 95,7 | 0 | 0 | 74 | 44,4 | 1006,3 |
| 33 | Longaví Norte | 31-08-2026 08:00 | 9,3 | 95,4 | 0 | 0 | 74 | 34,4 | 1005,9 |
| 32 | Longaví Norte | 31-08-2026 07:45 | 9 | 96 | 0 | 0,3 | 72 | 26,9 | 1005,7 |
| 31 | Longaví Norte | 31-08-2026 07:30 | 8,6 | 96,8 | 0 | 0,3 | 67 | 25,6 | 1005,4 |
| 30 | Longaví Norte | 31-08-2026 07:15 | 8,4 | 97,1 | 0 | 0 | 70 | 3,1 | 1005,2 |
| 29 | Longaví Norte | 31-08-2026 07:00 | 8,8 | 97,5 | 0 | 0,3 | 72 | 0,6 | 1005 |
| 28 | Longaví Norte | 31-08-2026 06:45 | 8,4 | 98,6 | 0 | 0 | 52 | 0,6 | 1005 |
| 27 | Longaví Norte | 31-08-2026 06:30 | 8,5 | 98,6 | 0 | 0 | 51 | 0,6 | 1004,7 |
| 26 | Longaví Norte | 31-08-2026 06:15 | 8,5 | 99,6 | 0 | 0 | 41 | 0,6 | 1004,6 |
| 25 | Longaví Norte | 31-08-2026 06:00 | 8,4 | 99,9 | 0 | 0,3 | 35 | 0,6 | 1004,4 |
| 24 | Longaví Norte | 31-08-2026 05:45 | 7,8 | 100 | 0 | 0 | 265 | 0,6 | 1004,2 |
| 23 | Longaví Norte | 31-08-2026 05:30 | 7,5 | 100 | 0 | 0 | 256 | 0,6 | 1004 |
| 22 | Longaví Norte | 31-08-2026 05:15 | 7,4 | 100 | 0 | 0 | 256 | 0,6 | 1003,8 |
| 21 | Longaví Norte | 31-08-2026 05:00 | 7 | 100 | 0 | 0 | 256 | 0,6 | 1003,6 |
| 20 | Longaví Norte | 31-08-2026 04:45 | 6,7 | 99,9 | 0 | 0 | 256 | 0,6 | 1003,5 |
| 19 | Longaví Norte | 31-08-2026 04:30 | 7,1 | 99,9 | 0 | 0 | 256 | 0,6 | 1003,5 |
| 18 | Longaví Norte | 31-08-2026 04:15 | 6,6 | 99,7 | 0 | 0 | 256 | 0,6 | 1003,3 |
| 17 | Longaví Norte | 31-08-2026 04:00 | 6,7 | 99,5 | 0 | 0 | 256 | 0,6 | 1003,4 |
| 16 | Longaví Norte | 31-08-2026 03:45 | 6,9 | 99 | 0 | 0 | 256 | 0,6 | 1003,3 |
| 15 | Longaví Norte | 31-08-2026 03:30 | 7,1 | 99,2 | 0 | 0 | 256 | 0,6 | 1003,2 |
| 14 | Longaví Norte | 31-08-2026 03:15 | 7,5 | 98,9 | 0 | 0 | 256 | 0,6 | 1003,2 |
| 13 | Longaví Norte | 31-08-2026 03:00 | 7,8 | 98,7 | 0 | 0 | 256 | 0,6 | 1003,2 |
| 12 | Longaví Norte | 31-08-2026 02:45 | 7,8 | 98,4 | 0 | 0 | 256 | 0,6 | 1003,3 |
| 11 | Longaví Norte | 31-08-2026 02:30 | 7,8 | 98,4 | 0 | 0 | 257 | 0,6 | 1003,3 |
| 10 | Longaví Norte | 31-08-2026 02:15 | 7,7 | 99,1 | 0 | 0,3 | 275 | 0,6 | 1003,4 |
| 9 | Longaví Norte | 31-08-2026 02:00 | 7,2 | 99,1 | 0 | 0 | 279 | 0,6 | 1003 |
| 8 | Longaví Norte | 31-08-2026 01:45 | 7 | 99,1 | 0 | 0 | 279 | 0,6 | 1002,9 |
| 7 | Longaví Norte | 31-08-2026 01:30 | 7 | 99,1 | 0 | 0 | 279 | 0,6 | 1002,8 |
| 6 | Longaví Norte | 31-08-2026 01:15 | 6,9 | 99,1 | 0 | 0 | 279 | 0,6 | 1002,8 |
| 5 | Longaví Norte | 31-08-2026 01:00 | 7,2 | 98,7 | 0 | 0 | 279 | 0,6 | 1002,8 |
| 4 | Longaví Norte | 31-08-2026 00:45 | 7,4 | 98,9 | 0 | 0 | 279 | 0,6 | 1002,7 |
| 3 | Longaví Norte | 31-08-2026 00:30 | 7,2 | 98,8 | 0 | 0 | 279 | 0,6 | 1002,8 |
| 2 | Longaví Norte | 31-08-2026 00:15 | 7,5 | 98,3 | 0 | 0 | 279 | 0,6 | 1002,6 |
| 1 | Longaví Norte | 31-08-2026 00:00 | 7,6 | 97,9 | 0 | 0 | 279 | 0,6 | 1002,5 |